Вернуться в каталог

SL-12 R/B(2)

АктивенGEO
NORAD 14193·ROCKET BODY·🇷🇺 Russia

Запущен Jul 15, 1980 с Baikonur Cosmodrome

Loading…

TLE

СвежийSource: Space-Track

Эпоха: Sep 14, 2026, 14:16 UTC

1 14193U 80060F   26257.59494777 -.00000289  00000-0  00000-0 0  9996
2 14193   4.8937 282.3885 0018802 301.3137  84.0720  1.01609702 48913

Отслеживайте SL-12 R/B(2) в реальном времени с AllMySat

Download on the App Store